TimeEDT,TemperatureF,Dew PointF,Humidity,Sea Level PressureIn,VisibilityMPH,Wind Direction,Wind SpeedMPH,Gust SpeedMPH,PrecipitationIn,Events,Conditions,WindDirDegrees,DateUTC
12:52 AM,73.0,63.0,71,30.01,10.0,SE,13.8,23.0,N/A,,Overcast,140,2013-08-30 04:52:00
1:52 AM,72.0,63.0,73,30.00,10.0,SSE,8.1,16.1,N/A,,Partly Cloudy,150,2013-08-30 05:52:00
2:52 AM,71.1,63.0,75,30.00,10.0,Variable,6.9,-,N/A,,Scattered Clouds,0,2013-08-30 06:52:00
3:47 AM,71.6,62.6,73,30.12,10.0,Variable,6.9,-,N/A,,Mostly Cloudy,0,2013-08-30 07:47:00
3:52 AM,71.1,63.0,75,29.99,10.0,Variable,4.6,-,N/A,,Mostly Cloudy,0,2013-08-30 07:52:00
4:52 AM,70.0,63.0,78,29.99,10.0,Variable,4.6,-,N/A,,Mostly Cloudy,0,2013-08-30 08:52:00
5:05 AM,69.8,62.6,78,30.12,10.0,Calm,Calm,-,N/A,,Scattered Clouds,0,2013-08-30 09:05:00
5:35 AM,69.8,62.6,78,30.13,10.0,Variable,4.6,-,N/A,,Mostly Cloudy,0,2013-08-30 09:35:00
5:50 AM,69.8,62.6,78,30.12,10.0,South,5.8,-,N/A,,Scattered Clouds,170,2013-08-30 09:50:00
5:52 AM,70.0,63.0,78,30.01,10.0,Variable,4.6,-,N/A,,Scattered Clouds,0,2013-08-30 09:52:00
6:52 AM,70.0,63.0,78,30.01,10.0,Calm,Calm,-,N/A,,Scattered Clouds,0,2013-08-30 10:52:00
7:52 AM,71.1,63.0,75,30.01,10.0,Variable,4.6,-,N/A,,Clear,0,2013-08-30 11:52:00
8:52 AM,73.9,63.0,68,30.02,10.0,SE,3.5,-,N/A,,Clear,140,2013-08-30 12:52:00
9:52 AM,75.9,64.0,67,30.02,10.0,Calm,Calm,-,N/A,,Partly Cloudy,0,2013-08-30 13:52:00
10:52 AM,79.0,64.0,60,30.02,10.0,Variable,6.9,-,N/A,,Scattered Clouds,0,2013-08-30 14:52:00
11:52 AM,80.1,64.9,60,30.01,10.0,South,5.8,-,N/A,,Mostly Cloudy,170,2013-08-30 15:52:00
12:52 PM,80.1,64.9,60,30.00,10.0,Variable,4.6,-,N/A,,Partly Cloudy,0,2013-08-30 16:52:00
1:52 PM,78.1,64.0,62,29.99,10.0,South,5.8,-,N/A,,Overcast,170,2013-08-30 17:52:00
2:52 PM,82.0,66.0,58,29.96,10.0,Variable,5.8,-,N/A,,Mostly Cloudy,0,2013-08-30 18:52:00
3:52 PM,81.0,64.9,58,29.94,10.0,Calm,Calm,-,N/A,,Mostly Cloudy,0,2013-08-30 19:52:00
4:52 PM,84.9,64.9,51,29.93,10.0,WSW,4.6,-,N/A,,Scattered Clouds,240,2013-08-30 20:52:00
5:52 PM,82.9,63.0,51,29.92,10.0,WNW,9.2,-,N/A,,Scattered Clouds,290,2013-08-30 21:52:00
6:52 PM,82.0,63.0,52,29.92,10.0,West,4.6,-,N/A,,Clear,280,2013-08-30 22:52:00
7:52 PM,78.1,63.0,60,29.93,10.0,Calm,Calm,-,N/A,,Clear,0,2013-08-30 23:52:00
8:52 PM,75.9,63.0,64,29.93,10.0,Calm,Calm,-,N/A,,Clear,0,2013-08-31 00:52:00
9:52 PM,75.0,62.1,64,29.93,10.0,South,3.5,-,N/A,,Clear,170,2013-08-31 01:52:00
10:52 PM,73.9,64.0,71,29.93,10.0,Calm,Calm,-,N/A,,Clear,0,2013-08-31 02:52:00
11:52 PM,73.0,64.0,73,29.92,10.0,Calm,Calm,-,N/A,,Scattered Clouds,0,2013-08-31 03:52:00